Temp
16 17 17 17 17 17 16 17 16 16 16 16 15 15 15 15 15 15 15 15 15 16 16 15 15 15 15 15 15 15 15 16 16 16 16 15 15 14 14 14 14 15 15
17 17 17 17 17 17 17 16 16 16 16 15 15 15 15 15 15 15 15 15 15 15 15 15 15 15 15 15 15 15 15 15 15 15 16 15 15 14 14 14 14 14 15
18 17 16 16 17 17 16 16 16 16 16 16 15 15 15 15 15 15 15 15 15 15 15 15 15 15 15 15 15 15 15 15 15 15 15 15 14 15 15 15 14 15 15
18 17 16 16 16 16 16 16 16 16 16 16 16 16 16 16 16 16 15 16 15 16 15 15 15 15 15 15 15 15 15 15 15 15 14 14 14 14 14 14 14 15 15
17 16 16 16 16 16 16 16 16 16 16 16 16 16 16 16 16 16 16 16 16 16 16 16 16 16 16 15 15 15 15 15 15 14 14 14 14 14 14 14 14 14 15
17 16 16 16 16 15 15 15 15 16 16 16 16 16 16 16 16 16 16 16 16 16 16 16 16 16 16 16 16 15 15 15 14 14 14 14 14 14 14 14 14 14 14
17 16 16 15 15 15 16 16 16 16 16 16 16 16 16 16 16 16 16 16 16 16 16 16 16 16 16 16 15 15 15 15 15 14 14 13 14 14 14 14 14 14 14
17 16 16 16 15 15 15 16 17 17 17 16 16 16 16 16 16 16 16 16 16 16 15 16 15 15 15 15 15 15 15 15 15 15 14 14 14 14 13 13 13 13 14
16 16 15 15 15 15 16 16 17 17 17 16 16 16 16 16 16 16 16 16 16 16 15 15 15 15 15 15 14 14 14 14 14 14 14 14 14 14 13 13 13 13 13
15 15 15 15 15 15 16 16 16 17 16 16 16 16 16 16 16 15 15 15 15 15 15 15 15 15 15 14 14 13 13 13 12 12 12 13 13 13 13 13 13 13 13
15 15 15 15 15 16 16 16 16 16 16 16 16 16 16 16 15 15 15 15 15 15 15 15 15 14 14 13 12 12 12 12 12 11 12 12 12 12 12 12 12 12 12
14 15 15 15 16 16 17 17 16 16 16 16 15 15 15 15 15 15 15 15 15 14 14 14 14 13 13 13 12 11 11 11 10 10 11 11 11 11 11 11 12 12 12
15 15 15 16 16 16 16 17 17 16 16 15 15 15 15 15 14 14 14 14 14 14 14 13 13 13 13 12 11 11 10 9 10 10 10 10 10 11 11 11 11 11 11
14 14 15 16 16 16 16 16 17 16 15 15 15 14 14 14 14 14 14 14 14 13 13 13 12 12 12 11 10 10 9 9 9 9 9 9 9 9 10 9 10 10 10
14 14 15 16 15 15 16 16 16 16 15 15 15 14 14 13 13 13 13 13 13 12 12 12 12 12 11 11 10 10 9 9 8 8 8 8 8 8 8 8 9 9 9
14 15 15 15 15 15 15 15 16 15 15 14 14 14 14 13 13 13 13 12 12 12 11 11 11 11 11 11 10 10 9 8 8 8 7 7 7 7 8 8 8 8 8
14 15 15 15 15 15 15 15 15 14 14 14 14 13 13 12 12 12 12 12 12 11 11 11 11 11 11 10 10 9 8 8 8 8 7 7 7 7 7 7 7 7 7
14 15 15 15 15 15 15 14 15 14 14 14 13 13 12 12 12 12 11 11 11 11 11 11 11 11 10 10 9 8 8 7 7 7 7 7 7 7 7 7 7 7 7
14 15 15 15 15 14 15 14 14 14 14 13 13 12 12 12 11 11 11 11 11 10 10 10 11 11 10 10 10 9 8 7 7 7 7 7 7 7 7 7 7 7 7
14 14 14 14 14 14 14 14 14 14 13 13 12 12 12 11 11 11 11 10 10 10 10 10 10 10 10 10 10 9 8 7 7 7 7 7 7 7 6 6 7 7 7
13 14 14 14 14 14 14 14 14 14 13 12 12 12 11 11 11 11 10 10 10 10 10 9 9 10 9 9 9 9 8 7 7 7 7 6 6 6 6 6 6 6 6
14 14 14 14 14 14 13 13 13 13 12 12 12 12 11 11 11 10 10 10 10 9 9 9 9 9 9 9 9 9 8 7 7 7 6 5 5 5 5 6 6 6 6
13 13 14 14 14 13 13 13 13 13 13 12 12 11 11 11 10 10 10 10 10 10 9 9 9 9 9 8 8 7 7 7 7 6 6 5 5 5 5 6 5 5 5
13 13 13 13 13 13 12 12 12 12 12 12 11 11 11 11 10 10 10 10 10 9 9 9 9 8 8 7 7 7 6 6 6 6 6 5 5 5 5 5 5 5 4
13 13 13 13 12 12 12 11 11 11 11 11 11 11 11 10 10 10 10 10 9 8 8 8 8 7 7 6 6 6 6 6 5 5 5 6 5 5 5 5 5 5 4
12 12 12 12 12 11 11 11 11 11 11 11 11 11 10 10 10 10 10 10 9 8 7 7 7 7 6 6 6 6 5 5 5 5 4 4 4 5 5 5 5 4 4
Height
1546 1549 1551 1553 1554 1555 1555 1556 1556 1556 1556 1556 1556 1556 1555 1555 1554 1553 1553 1553 1552 1551 1551 1550 1549 1548 1548 1547 1546 1546 1545 1544 1544 1543 1542 1542 1541 1541 1540 1540 1539 1539 1538
1544 1548 1550 1552 1554 1555 1556 1556 1556 1556 1557 1557 1557 1556 1555 1555 1554 1554 1553 1552 1552 1551 1550 1549 1549 1548 1547 1546 1545 1545 1544 1544 1543 1543 1542 1542 1541 1541 1540 1539 1539 1538 1538
1544 1547 1550 1552 1554 1555 1556 1556 1557 1557 1557 1557 1556 1556 1555 1554 1554 1553 1552 1551 1550 1550 1549 1548 1547 1547 1546 1545 1544 1544 1543 1543 1542 1542 1541 1540 1540 1540 1540 1539 1538 1538 1537
1544 1547 1550 1552 1554 1555 1556 1556 1557 1557 1557 1556 1556 1555 1554 1553 1553 1552 1551 1550 1549 1548 1547 1546 1545 1544 1543 1543 1543 1542 1542 1541 1541 1540 1540 1539 1539 1539 1538 1538 1538 1537 1536
1543 1547 1550 1552 1553 1554 1555 1556 1557 1557 1556 1556 1555 1554 1553 1552 1551 1551 1550 1549 1547 1546 1545 1544 1543 1542 1541 1541 1540 1540 1540 1539 1538 1538 1538 1538 1537 1537 1537 1538 1537 1537 1536
1543 1546 1549 1552 1553 1554 1555 1556 1556 1556 1556 1555 1554 1553 1553 1551 1550 1550 1549 1548 1546 1545 1544 1543 1541 1540 1539 1538 1537 1537 1536 1536 1535 1536 1536 1536 1536 1536 1537 1536 1536 1535 1534
1543 1546 1549 1551 1553 1555 1555 1556 1556 1555 1555 1554 1554 1553 1552 1551 1550 1549 1548 1546 1545 1544 1543 1541 1540 1538 1537 1536 1535 1534 1533 1533 1532 1532 1533 1533 1534 1534 1535 1534 1533 1533 1533
1544 1547 1548 1551 1553 1554 1554 1555 1555 1555 1555 1554 1553 1552 1552 1551 1549 1548 1547 1546 1545 1543 1542 1540 1539 1537 1536 1534 1533 1532 1530 1530 1529 1529 1529 1530 1531 1531 1531 1531 1531 1531 1530
1545 1547 1549 1551 1552 1553 1554 1555 1555 1554 1554 1553 1553 1552 1551 1550 1549 1548 1547 1545 1544 1542 1541 1539 1537 1536 1534 1533 1531 1530 1529 1528 1526 1526 1527 1528 1529 1529 1528 1529 1529 1528 1527
1544 1547 1549 1551 1552 1553 1554 1554 1554 1554 1554 1553 1553 1552 1552 1551 1549 1548 1546 1545 1544 1542 1540 1538 1536 1535 1533 1531 1530 1528 1528 1527 1525 1525 1526 1527 1527 1527 1527 1526 1526 1526 1525
1543 1546 1549 1550 1552 1552 1553 1553 1554 1554 1554 1553 1553 1552 1551 1550 1549 1547 1546 1545 1543 1541 1539 1537 1535 1533 1531 1530 1528 1527 1527 1525 1525 1525 1525 1525 1525 1525 1524 1524 1523 1523 1522
1542 1545 1548 1550 1551 1552 1552 1553 1553 1554 1554 1553 1552 1551 1551 1550 1549 1547 1546 1544 1542 1541 1538 1537 1534 1532 1531 1529 1528 1526 1525 1523 1523 1523 1523 1524 1524 1524 1522 1521 1521 1520 1520
1542 1545 1547 1549 1550 1552 1552 1552 1553 1553 1553 1552 1552 1551 1550 1549 1549 1547 1545 1544 1542 1541 1538 1536 1534 1532 1530 1529 1528 1526 1525 1523 1523 1523 1522 1522 1523 1522 1521 1521 1519 1519 1518
1541 1544 1546 1548 1549 1551 1552 1552 1552 1552 1552 1551 1551 1551 1549 1549 1548 1546 1545 1543 1542 1540 1538 1536 1534 1532 1530 1529 1527 1526 1525 1524 1523 1522 1522 1522 1521 1519 1519 1519 1519 1518 1517
1541 1543 1545 1547 1549 1550 1551 1551 1551 1551 1551 1550 1550 1550 1549 1549 1547 1546 1544 1543 1541 1539 1538 1536 1533 1532 1529 1528 1526 1525 1525 1524 1525 1523 1522 1521 1520 1518 1518 1518 1517 1517 1516
1541 1542 1545 1547 1549 1550 1551 1550 1551 1551 1550 1549 1549 1549 1548 1548 1547 1545 1544 1542 1541 1539 1537 1535 1533 1531 1529 1528 1526 1524 1524 1525 1525 1523 1522 1521 1520 1518 1517 1516 1515 1515 1513
1541 1542 1544 1546 1548 1549 1550 1551 1550 1550 1549 1549 1549 1548 1547 1548 1546 1545 1544 1542 1540 1539 1538 1536 1534 1532 1531 1528 1526 1524 1525 1525 1525 1524 1523 1521 1519 1519 1517 1515 1515 1514 1512
1540 1542 1544 1545 1547 1549 1549 1549 1549 1549 1549 1548 1548 1548 1548 1547 1546 1544 1544 1542 1540 1539 1538 1537 1535 1533 1530 1528 1526 1524 1525 1525 1525 1524 1522 1520 1519 1518 1517 1515 1514 1512 1511
1539 1541 1542 1544 1546 1547 1548 1549 1548 1548 1548 1548 1548 1548 1547 1546 1546 1544 1544 1542 1541 1540 1538 1536 1534 1532 1530 1529 1526 1524 1524 1525 1525 1523 1522 1520 1519 1518 1516 1514 1513 1511 1509
1537 1539 1541 1543 1544 1546 1547 1547 1547 1547 1547 1547 1547 1547 1547 1546 1546 1544 1543 1542 1540 1539 1538 1536 1535 1532 1530 1529 1526 1523 1524 1525 1524 1523 1522 1519 1518 1517 1516 1514 1512 1510 1508
1534 1536 1539 1541 1542 1544 1545 1546 1546 1545 1545 1546 1546 1546 1546 1546 1545 1544 1542 1541 1540 1539 1537 1536 1534 1531 1530 1529 1526 1524 1524 1524 1523 1522 1520 1518 1517 1516 1516 1514 1512 1510 1507
1532 1535 1537 1538 1540 1542 1544 1544 1544 1543 1543 1544 1544 1545 1545 1544 1544 1542 1541 1540 1539 1537 1536 1535 1533 1531 1530 1527 1525 1524 1523 1523 1522 1521 1520 1518 1517 1515 1514 1513 1512 1509 1507
1530 1533 1535 1537 1537 1540 1541 1542 1542 1542 1541 1542 1543 1543 1543 1543 1542 1541 1540 1539 1537 1536 1535 1533 1531 1529 1528 1526 1525 1525 1523 1522 1520 1519 1518 1518 1517 1515 1514 1512 1510 1508 1506
1529 1531 1534 1535 1535 1538 1540 1540 1540 1540 1541 1541 1541 1541 1541 1541 1540 1539 1538 1536 1535 1534 1532 1531 1529 1527 1525 1524 1523 1523 1522 1522 1520 1517 1516 1515 1514 1513 1512 1511 1509 1507 1506
1527 1528 1531 1532 1533 1535 1537 1538 1539 1539 1540 1539 1539 1539 1539 1538 1538 1537 1535 1534 1532 1531 1530 1528 1526 1525 1523 1522 1522 1521 1520 1519 1519 1518 1515 1514 1512 1511 1509 1508 1507 1505 1503
1525 1526 1528 1529 1530 1532 1534 1536 1536 1537 1537 1538 1538 1537 1537 1537 1535 1534 1532 1530 1529 1527 1526 1524 1523 1521 1520 1520 1519 1518 1517 1516 1515 1514 1513 1510 1509 1507 1507 1505 1504 1502 1501
Wind_Speed
17 14 14 12 11 9 8 8 7 7 7 8 8 9 9 9 8 8 8 8 7 6 6 6 7 8 7 7 7 7 7 7 6 5 3 1 1 3 4 6 8 8 7
18 16 15 13 12 9 8 8 7 6 7 7 6 5 5 5 6 6 5 6 6 5 6 6 6 6 7 7 6 7 7 6 6 6 4 2 2 3 3 5 9 7 6
17 19 17 14 11 10 9 8 7 5 4 2 1 1 2 3 3 3 3 4 5 5 6 6 5 5 5 7 7 7 7 6 6 5 4 2 4 4 5 9 9 7 5
16 18 18 14 12 11 9 8 5 2 1 1 2 2 3 3 3 4 5 5 5 6 7 7 8 8 8 8 7 6 7 7 7 5 3 3 4 5 7 11 9 8 6
18 18 16 14 13 11 9 6 3 1 1 2 2 4 4 5 5 5 5 6 6 7 8 8 9 9 10 10 10 9 10 9 8 6 6 6 6 7 8 10 10 10 9
18 18 16 14 13 10 8 5 2 0 1 2 3 4 5 5 5 5 6 6 7 7 7 8 9 10 10 11 11 11 12 12 13 12 8 7 7 6 9 12 13 12 12
18 18 17 15 11 9 6 4 2 0 2 3 3 4 4 5 5 5 6 6 7 8 8 8 8 9 9 10 11 12 12 13 14 13 11 9 7 8 10 12 15 14 13
18 18 17 15 12 9 7 4 2 0 1 2 3 4 5 5 5 6 7 8 8 8 8 8 8 9 9 9 9 9 9 11 12 12 12 11 9 10 9 10 14 14 14
20 18 17 15 12 9 6 4 3 1 1 2 3 4 4 4 6 7 8 9 9 10 10 10 10 10 10 10 9 9 8 8 7 7 8 8 8 11 10 11 13 15 12
21 19 18 15 12 9 7 5 3 2 2 2 3 4 3 4 6 8 8 9 9 9 10 10 10 10 10 9 8 7 5 5 4 3 3 2 7 10 11 9 9 10 9
23 20 18 14 12 9 7 5 3 2 2 2 3 4 5 6 7 8 8 9 10 10 11 11 12 11 10 9 7 6 5 5 6 5 4 4 6 8 9 11 14 15 16
24 21 17 14 12 9 7 5 4 3 2 2 4 5 6 7 8 9 9 10 10 11 11 11 11 11 9 8 7 5 4 3 4 5 6 6 8 9 10 14 16 19 19
22 20 16 14 11 9 6 4 4 3 2 3 4 4 5 6 6 7 8 9 10 11 10 10 10 10 9 8 6 5 4 3 5 6 7 9 11 12 13 15 16 10 9
22 19 16 13 10 8 6 4 2 1 2 2 3 3 5 5 6 7 9 10 10 10 11 11 11 10 9 8 5 5 4 4 5 7 7 9 10 11 9 3 3 2 2
22 19 17 14 11 9 6 4 2 1 1 2 3 3 4 5 6 8 9 10 10 10 10 11 11 10 9 7 4 4 4 3 6 7 8 9 10 9 3 2 3 5 6
22 20 17 14 12 9 7 4 2 1 1 1 2 2 4 5 7 8 9 9 9 10 11 12 12 11 10 7 5 6 7 4 4 7 9 10 11 12 6 2 4 5 3
21 19 17 14 12 9 7 5 3 2 0 1 1 2 3 5 7 8 8 8 9 10 10 11 11 11 9 7 6 7 7 6 4 5 9 14 12 9 8 8 7 7 7
21 19 17 14 12 10 7 5 3 2 2 1 1 1 3 5 7 7 8 8 8 9 10 11 10 10 10 8 5 5 6 5 5 8 12 13 12 12 11 9 10 10 9
21 19 17 14 12 9 7 6 4 3 3 2 0 1 3 6 6 6 7 7 8 8 9 10 12 11 11 9 6 4 3 4 5 9 9 11 11 12 13 12 12 12 11
22 19 16 15 13 11 9 7 5 3 3 2 1 3 5 5 6 6 7 7 7 8 8 9 10 11 11 10 7 3 3 4 5 7 10 9 12 14 13 15 15 14 12
22 20 19 16 13 11 9 8 6 4 3 2 2 4 4 4 5 6 7 8 8 8 8 9 10 11 10 10 9 5 3 6 7 8 9 10 12 13 13 15 17 15 14
21 20 19 17 13 12 10 8 6 5 4 3 3 3 3 4 5 7 7 8 9 9 10 10 10 10 11 11 10 6 3 6 7 10 7 8 11 13 12 15 17 16 16
23 22 19 16 13 12 11 10 8 6 5 4 3 3 4 5 6 7 8 9 10 10 10 11 10 10 9 9 9 5 4 3 11 5 6 8 11 13 14 18 18 16 15
24 20 18 16 14 14 13 11 9 8 7 5 4 5 5 6 7 9 10 11 11 12 12 12 12 11 11 9 8 7 7 10 5 5 6 11 14 13 15 19 16 15 16
22 20 18 17 16 15 14 13 12 10 9 7 6 6 7 8 10 11 13 14 14 14 13 13 13 13 12 11 11 10 11 10 11 13 17 12 13 15 19 18 14 14 14
20 19 19 18 17 16 16 15 14 12 10 8 8 8 8 9 11 14 17 18 17 16 15 14 14 14 14 14 13 13 14 13 12 12 16 20 20 18 16 17 18 15 13
Wind_Direction
181 177 162 161 150 142 136 124 112 98 84 73 65 59 59 59 60 59 56 53 51 47 35 30 22 23 23 23 24 24 25 26 24 21 11 338 340 357 357 0 346 342 345
168 175 165 163 155 151 142 131 118 98 81 75 84 88 79 67 63 61 51 41 36 28 22 9 359 355 355 356 358 0 2 7 13 20 11 24 13 337 324 352 351 328 320
173 169 165 164 160 153 144 134 127 126 114 94 51 6 355 358 356 350 341 332 328 323 316 310 314 327 340 338 337 338 337 341 347 357 353 307 340 352 343 336 342 330 304
172 167 164 166 162 155 148 144 141 131 84 5 352 353 356 357 351 340 333 326 323 319 314 308 306 303 297 294 298 313 316 319 316 322 318 277 310 345 348 349 332 326 308
164 166 167 168 164 156 153 153 149 130 13 11 3 358 355 356 357 350 339 333 330 326 322 316 309 301 296 294 292 283 278 286 289 292 290 277 293 314 321 332 336 333 306
165 170 169 166 163 161 159 160 167 213 22 5 356 356 358 3 3 354 352 351 343 334 329 320 314 308 303 296 288 283 278 274 273 275 276 275 273 327 301 309 308 318 313
168 172 170 165 164 165 167 172 178 91 353 357 360 5 13 15 15 10 7 3 353 349 342 334 328 320 315 303 295 290 283 277 275 274 269 263 256 272 285 283 288 296 299
177 174 171 170 171 174 177 181 184 270 358 10 21 28 27 23 16 15 9 6 360 355 352 347 343 338 332 326 324 313 301 289 279 271 265 255 246 247 273 271 280 290 292
182 183 176 175 177 181 184 185 180 142 52 39 33 33 28 18 6 10 8 5 358 353 349 344 339 337 332 327 328 321 315 317 297 276 265 256 243 237 258 273 277 285 286
181 184 180 179 181 186 184 180 158 116 66 32 28 26 13 15 14 19 10 2 353 352 346 338 334 333 326 321 319 314 312 304 295 289 262 240 239 254 260 268 272 284 306
182 185 183 181 183 183 180 174 154 133 110 46 22 26 22 17 22 14 7 358 352 349 345 341 338 332 326 330 332 324 326 296 280 278 270 259 254 262 270 278 284 294 297
182 182 181 180 186 185 181 170 153 134 111 66 34 25 22 15 11 9 3 357 351 349 347 343 339 336 335 335 343 357 358 323 301 284 271 269 283 295 299 293 301 304 303
182 181 178 182 187 187 182 176 169 135 87 52 41 27 24 13 8 5 1 356 354 348 349 354 351 349 347 349 357 11 32 355 339 312 299 289 286 285 291 293 292 302 306
184 183 183 185 193 190 186 182 179 106 71 41 41 25 24 11 4 2 358 357 354 356 2 7 8 7 7 5 14 25 38 12 350 348 340 328 313 298 295 258 316 259 277
188 185 186 187 192 190 191 187 185 170 52 47 34 24 17 7 3 3 357 360 1 7 13 15 16 14 18 17 21 15 14 353 350 347 337 326 323 339 297 271 259 273 268
190 188 189 188 189 192 191 186 222 195 75 40 18 4 10 1 3 1 358 4 12 14 18 19 18 20 18 26 18 21 28 23 3 347 359 356 340 353 15 311 307 276 321
193 192 191 189 190 191 194 203 208 183 15 343 346 1 2 359 357 357 360 10 19 20 18 20 18 22 18 21 19 26 29 21 347 332 331 335 339 349 347 351 347 343 343
199 195 193 191 194 193 193 202 201 217 284 317 331 356 356 350 350 360 2 11 16 16 13 12 20 21 20 21 20 20 29 360 329 320 327 336 344 343 340 335 328 321 320
199 200 197 196 197 197 199 200 212 246 286 308 306 329 344 344 348 0 1 5 6 4 6 5 6 15 21 16 2 354 350 352 340 336 350 351 15 17 20 8 352 335 328
198 200 202 202 200 201 202 206 222 249 268 263 284 321 336 345 347 352 354 352 351 350 355 356 356 4 9 9 6 339 283 279 294 313 335 350 9 12 10 7 4 355 347
198 202 205 208 207 210 213 216 228 248 244 260 300 319 332 341 340 342 341 340 337 335 338 340 347 353 354 1 9 355 301 256 274 302 323 337 349 353 356 354 357 358 352
203 205 210 211 211 216 219 227 241 246 246 269 290 310 331 333 331 331 329 328 328 328 327 325 333 341 343 351 359 344 304 277 266 294 282 307 324 331 336 342 348 350 352
210 211 212 214 216 222 227 233 246 253 258 265 284 303 302 310 318 325 325 324 322 320 316 314 318 322 329 335 339 337 323 305 316 273 266 265 312 313 321 331 338 341 347
216 214 216 217 222 228 231 236 247 249 248 249 269 272 276 293 314 321 318 316 314 309 306 304 307 307 311 313 309 301 291 287 298 294 275 260 295 298 309 318 322 327 335
222 222 224 225 228 231 235 236 242 243 241 245 267 288 292 300 312 316 313 307 303 301 302 300 298 298 298 298 296 291 290 289 282 277 288 283 294 295 300 305 308 313 319
224 224 228 231 233 236 237 238 240 239 238 245 272 291 292 298 303 307 306 303 297 295 296 297 294 290 289 291 291 291 289 284 279 275 279 290 295 298 298 299 303 301 303